Weather History for KELN - November, 2012

Change the Weather History Date:

Saturday, November 10, 2012

  Actual Average (KYKM) Record (KYKM)
Temperature  
Mean Temperature 34 °F 40 °F  
Max Temperature 39 °F 51 °F 73 °F (1989)
Min Temperature 28 °F 28 °F 13 °F (1986)
Degree Days  
Heating Degree Days 32 26  
Month to date heating degree days 239  
Since 1 July heating degree days 943  
Cooling Degree Days 0 0  
Month to date cooling degree days 0  
Year to date cooling degree days 472  
Moisture  
Dew Point 28 °F    
Average Humidity 75    
Maximum Humidity 86    
Minimum Humidity 60    
Precipitation  
Precipitation 0.00 in 0.03 in 1.01 in (1983)
Month to date precipitation 0.30  
Year to date precipitation 5.97  
Snow  
Snow 0.00 in 0.00 in 1.00 in (1995)
Month to date snowfall 0.3  
Year to date snowfall 9.0  
Since 1 July snowfall 0.4  
Snow Depth -    
Sea Level Pressure  
Sea Level Pressure 30.03 in    
Wind  
Wind Speed 2 mph (ESE)    
Max Wind Speed 9 mph    
Max Gust Speed -    
Visibility 7 miles    
Events Fog , Snow    
T = Trace of Precipitation, MM = Missing Value Source: NWS Daily Summary

Daily Weather History Graph

Daily Weather History Graph

Search for Another Location

Airport or City:

Trip Planner

Search our weather history database for the weather conditions in past years. The results will help you decide how hot, cold, wet, or windy it might be!

Date:

Astronomy

Nov. 10, 2012 Rise Set
Actual Time 6:59 AM PST 4:32 PM PST
Civil Twilight 6:26 AM PST 5:05 PM PST
Nautical Twilight 5:49 AM PST 5:41 PM PST
Astronomical Twilight 5:13 AM PST 6:17 PM PST
Moon 2:57 AM PST (11/10) 2:32 PM PST (11/10)
Length of Visible Light 10h 38m
Length of Day
9h 33m
Waning Crescent, 13% of the Moon is Illuminated
Nov 10
Waning Crescent
Nov 13
New
Nov 20
First Quarter
Nov 28
Full
Dec 6
Last Quarter

Hourly Weather History & Observations

Time (PST) Temp. Windchill Dew Point Humidity Pressure Visibility Wind Dir Wind Speed Gust Speed Precip Events Conditions
12:35 AM 35.6 °F - 30.2 °F 81% 29.89 in 2.5 mi Calm Calm - N/A   Haze
12:40 AM 35.6 °F - 30.2 °F 81% 29.89 in 1.8 mi Calm Calm - N/A   Overcast
12:53 AM 35.1 °F - 30.0 °F 82% 29.92 in 1.5 mi Calm Calm - N/A   Haze
1:05 AM 35.6 °F 32.8 °F 30.2 °F 81% 29.89 in 2.0 mi WSW 3.5 mph - 0.00 in Snow Light Snow
1:11 AM 35.6 °F - 30.2 °F 81% 29.90 in 1.0 mi Calm Calm - 0.00 in Snow Light Snow
1:18 AM 35.6 °F - 30.2 °F 81% 29.90 in 0.5 mi Calm Calm - 0.00 in Snow Snow
1:53 AM 35.1 °F - 30.9 °F 85% 29.94 in 0.2 mi Calm Calm - 0.00 in Fog Fog
2:12 AM 35.6 °F - 30.2 °F 81% 29.91 in 1.2 mi Calm Calm - N/A   Overcast
2:21 AM 35.6 °F - 30.2 °F 81% 29.91 in 3.0 mi Calm Calm - N/A   Haze
2:33 AM 35.6 °F - 30.2 °F 81% 29.91 in 1.8 mi Calm Calm - N/A   Overcast
2:53 AM 35.1 °F 31.0 °F 30.9 °F 85% 29.95 in 2.0 mi SSE 4.6 mph - N/A   Overcast
3:01 AM 35.6 °F 32.8 °F 30.2 °F 81% 29.92 in 4.0 mi SSE 3.5 mph - 0.00 in Snow Light Snow
3:18 AM 35.6 °F 32.8 °F 28.4 °F 75% 29.92 in 5.0 mi SSE 3.5 mph - 0.00 in Snow Light Snow
3:34 AM 35.6 °F 31.7 °F 28.4 °F 75% 29.92 in 5.0 mi SSE 4.6 mph - 0.00 in Snow Light Snow
3:53 AM 34.0 °F 31.0 °F 28.0 °F 79% 29.96 in 8.0 mi SE 3.5 mph - 0.00 in   Overcast
4:00 AM 33.8 °F - 28.4 °F 81% 29.93 in 9.0 mi Calm Calm - N/A   Overcast
4:53 AM 34.0 °F - 28.0 °F 79% 29.98 in 10.0 mi Calm Calm - N/A   Overcast
5:53 AM 34.0 °F - 27.0 °F 75% 29.99 in 9.0 mi Calm Calm - N/A   Overcast
6:53 AM 34.0 °F - 27.0 °F 75% 30.01 in 10.0 mi Calm Calm - N/A   Overcast
7:53 AM 34.0 °F 29.8 °F 28.0 °F 79% 30.03 in 7.0 mi ESE 4.6 mph - 0.00 in   Overcast
8:53 AM 35.1 °F 31.0 °F 28.9 °F 78% 30.05 in 6.0 mi SE 4.6 mph - N/A   Haze
9:14 AM 35.6 °F 31.7 °F 28.4 °F 75% 30.01 in 7.0 mi SE 4.6 mph - N/A   Overcast
9:40 AM 35.6 °F 32.8 °F 28.4 °F 75% 30.01 in 4.0 mi SSE 3.5 mph - 0.00 in Snow Light Snow
9:53 AM 35.1 °F 31.0 °F 28.9 °F 78% 30.06 in 5.0 mi SE 4.6 mph - 0.00 in Snow Light Snow
10:53 AM 36.0 °F 30.3 °F 27.0 °F 70% 30.06 in 10.0 mi ESE 6.9 mph - 0.00 in   Overcast
11:30 AM 37.4 °F 32.1 °F 26.6 °F 65% 30.02 in 10.0 mi SE 6.9 mph - N/A   Overcast
11:51 AM 37.4 °F 32.1 °F 26.6 °F 65% 30.03 in 10.0 mi ESE 6.9 mph - N/A   Overcast
11:53 AM 37.9 °F 33.5 °F 26.1 °F 62% 30.07 in 10.0 mi ESE 5.8 mph - N/A   Overcast
12:00 PM 37.4 °F 32.1 °F 26.6 °F 65% 30.03 in 10.0 mi SSE 6.9 mph - N/A   Overcast
12:53 PM 39.9 °F 33.9 °F 27.0 °F 60% 30.07 in 10.0 mi SE 9.2 mph - N/A   Scattered Clouds
1:53 PM 39.0 °F 34.0 °F 26.1 °F 60% 30.09 in 10.0 mi SE 6.9 mph - N/A   Overcast
2:53 PM 37.9 °F 34.4 °F 25.0 °F 60% 30.11 in 10.0 mi SE 4.6 mph - N/A   Mostly Cloudy
3:53 PM 37.9 °F - 25.0 °F 60% 30.13 in 10.0 mi Calm Calm - N/A   Overcast
4:53 PM 34.0 °F 31.0 °F 26.1 °F 73% 30.14 in 10.0 mi WNW 3.5 mph - N/A   Mostly Cloudy
5:53 PM 33.1 °F - 26.1 °F 75% 30.16 in 10.0 mi Calm Calm - N/A   Mostly Cloudy
6:53 PM 33.1 °F 28.7 °F 25.0 °F 72% 30.18 in 10.0 mi ENE 4.6 mph - N/A   Overcast
8:29 PM 33.8 °F 30.8 °F 24.8 °F 70% 30.14 in 10.0 mi East 3.5 mph - N/A   Overcast
9:46 PM 32.0 °F 28.7 °F 24.8 °F 75% 30.15 in 10.0 mi NNW 3.5 mph - N/A   Overcast
9:50 PM 32.0 °F 28.7 °F 24.8 °F 75% 30.15 in 10.0 mi North 3.5 mph - N/A   Overcast
9:53 PM 32.0 °F 28.7 °F 25.0 °F 75% 30.19 in 10.0 mi North 3.5 mph - N/A   Overcast
10:08 PM 30.2 °F 26.7 °F 24.8 °F 80% 30.15 in 10.0 mi North 3.5 mph - N/A   Mostly Cloudy
10:19 PM 30.2 °F - 24.8 °F 80% 30.16 in 10.0 mi Calm Calm - N/A   Mostly Cloudy
10:39 PM 32.0 °F - 26.6 °F 80% 30.16 in 10.0 mi Calm Calm - N/A   Overcast
10:53 PM 32.0 °F 28.7 °F 26.1 °F 79% 30.21 in 10.0 mi NE 3.5 mph - N/A   Overcast
11:13 PM 28.4 °F 24.6 °F 24.8 °F 86% 30.17 in 10.0 mi WNW 3.5 mph - N/A   Scattered Clouds
11:53 PM 30.0 °F - 24.1 °F 79% 30.22 in 10.0 mi Calm Calm - N/A   Overcast